| time (UTC) | temp C | wind direction | speed KPH | gust KPH | rain 1hr cm | rain 24hr cm | rain mn cm | humidity % | barometer mb |
| 20260504050259 | 10 | 85 | 3.2 | 4.8 | 0.00 | 0.00 | 0.00 | 98 | 1028.4 |
| 20260504045756 | 10 | 105 | 4.8 | 6.4 | 0.00 | 0.00 | 0.00 | 97 | 1028.2 |
| 20260504045251 | 10 | 54 | 0.0 | 4.8 | 0.00 | 0.00 | 0.00 | 97 | 1028.3 |
| 20260504044749 | 10 | 35 | 4.8 | 4.8 | 0.00 | 0.00 | 0.00 | 97 | 1028.3 |
| 20260504044246 | 10 | 41 | 3.2 | 4.8 | 0.00 | 0.00 | 0.00 | 97 | 1027.8 |
| 20260504043743 | 10 | 57 | 1.6 | 4.8 | 0.00 | 0.00 | 0.00 | 98 | 1027.9 |
| 20260504043240 | 10 | 82 | 0.0 | 3.2 | 0.00 | 0.00 | 0.00 | 98 | 1028.1 |
| 20260504042738 | 10 | 35 | 0.0 | 1.6 | 0.00 | 0.00 | 0.00 | 98 | 1027.9 |
| 20260504042234 | 10 | 81 | 0.0 | 0.0 | 0.00 | 0.00 | 0.00 | 98 | 1028.1 |
| 20260504041730 | 10 | 29 | 0.0 | 3.2 | 0.00 | 0.00 | 0.00 | 99 | 1028.0 |
| 20260504041226 | 10 | 75 | 0.0 | 1.6 | 0.00 | 0.00 | 0.00 | 98 | 1028.0 |
| 20260504040723 | 10 | 54 | 1.6 | 3.2 | 0.00 | 0.00 | 0.00 | 98 | 1028.0 |
| 20260504040220 | 10 | 66 | 1.6 | 4.8 | 0.00 | 0.00 | 0.00 | 98 | 1028.1 |
| 20260504035716 | 10 | 90 | 1.6 | 4.8 | 0.00 | 0.00 | 0.00 | 98 | 1028.1 |
| 20260504035214 | 10 | 79 | 3.2 | 4.8 | 0.00 | 0.00 | 0.00 | 98 | 1027.9 |
| 20260504034711 | 10 | 83 | 4.8 | 4.8 | 0.00 | 0.00 | 0.00 | 98 | 1027.9 |
| 20260504034208 | 10 | 90 | 0.0 | 3.2 | 0.00 | 0.00 | 0.00 | 98 | 1028.2 |
| 20260504033706 | 10 | 57 | 1.6 | 3.2 | 0.00 | 0.00 | 0.00 | 98 | 1028.0 |
| 20260504033203 | 10 | 49 | 3.2 | 3.2 | 0.00 | 0.00 | 0.00 | 97 | 1028.1 |
| 20260504032659 | 10 | 81 | 0.0 | 1.6 | 0.00 | 0.00 | 0.00 | 97 | 1028.1 |
| 20260504032156 | 10 | 60 | 0.0 | 4.8 | 0.00 | 0.00 | 0.00 | 97 | 1028.2 |
| 20260504031653 | 10 | 73 | 3.2 | 3.2 | 0.00 | 0.00 | 0.00 | 97 | 1028.0 |
| 20260504031150 | 10 | 74 | 3.2 | 4.8 | 0.00 | 0.00 | 0.00 | 97 | 1027.7 |
| 20260504030646 | 10 | 90 | 0.0 | 4.8 | 0.00 | 0.00 | 0.00 | 97 | 1027.9 |
| 20260504030143 | 10 | 79 | 4.8 | 4.8 | 0.00 | 0.00 | 0.00 | 96 | 1028.0 |
| 20260504025640 | 10 | 75 | 1.6 | 3.2 | 0.00 | 0.00 | 0.00 | 96 | 1027.8 |
| 20260504025137 | 10 | 53 | 0.0 | 3.2 | 0.00 | 0.00 | 0.00 | 96 | 1028.1 |
| 20260504024634 | 10 | 66 | 0.0 | 4.8 | 0.00 | 0.00 | 0.00 | 96 | 1027.9 |
| 20260504024131 | 10 | 49 | 3.2 | 3.2 | 0.00 | 0.00 | 0.00 | 95 | 1028.1 |
| 20260504023627 | 11 | 90 | 4.8 | 6.4 | 0.00 | 0.00 | 0.00 | 95 | 1028.0 |
| 20260504023124 | 11 | 71 | 0.0 | 4.8 | 0.00 | 0.00 | 0.00 | 95 | 1027.7 |
| 20260504022620 | 11 | 72 | 3.2 | 4.8 | 0.00 | 0.00 | 0.00 | 94 | 1027.7 |
| 20260504022116 | 11 | 90 | 3.2 | 4.8 | 0.00 | 0.00 | 0.00 | 94 | 1027.5 |
| 20260504021614 | 11 | 74 | 1.6 | 1.6 | 0.00 | 0.00 | 0.00 | 93 | 1027.7 |
| 20260504021110 | 11 | 90 | 0.0 | 3.2 | 0.00 | 0.00 | 0.00 | 93 | 1027.5 |
| 20260504020608 | 11 | 53 | 3.2 | 6.4 | 0.00 | 0.00 | 0.00 | 93 | 1027.7 |
| 20260504020104 | 11 | 90 | 4.8 | 4.8 | 0.00 | 0.00 | 0.00 | 92 | 1027.4 |
| 20260504015600 | 11 | 86 | 4.8 | 4.8 | 0.00 | 0.00 | 0.00 | 91 | 1027.5 |
| 20260504015056 | 11 | 66 | 1.6 | 1.6 | 0.00 | 0.00 | 0.00 | 91 | 1027.4 |
| 20260504014552 | 11 | 37 | 0.0 | 3.2 | 0.00 | 0.00 | 0.00 | 90 | 1027.0 |
| 20260504014050 | 11 | 81 | 0.0 | 1.6 | 0.00 | 0.00 | 0.00 | 89 | 1027.3 |
| 20260504013547 | 12 | 82 | 3.2 | 4.8 | 0.00 | 0.00 | 0.00 | 89 | 1027.2 |
| 20260504013044 | 12 | 63 | 1.6 | 3.2 | 0.00 | 0.00 | 0.00 | 88 | 1027.1 |
| 20260504012541 | 12 | 41 | 3.2 | 3.2 | 0.00 | 0.00 | 0.00 | 87 | 1027.1 |
| 20260504012039 | 12 | 60 | 1.6 | 3.2 | 0.00 | 0.00 | 0.00 | 87 | 1027.3 |
| 20260504011536 | 12 | 66 | 0.0 | 4.8 | 0.00 | 0.00 | 0.00 | 86 | 1027.0 |
| 20260504011032 | 12 | 90 | 0.0 | 3.2 | 0.00 | 0.00 | 0.00 | 86 | 1027.0 |
| 20260504010527 | 12 | 74 | 1.6 | 3.2 | 0.00 | 0.00 | 0.00 | 85 | 1027.0 |
| 20260504010024 | 12 | 41 | 3.2 | 3.2 | 0.00 | 0.00 | 0.00 | 83 | 1027.0 |
| 20260504005521 | 13 | 40 | 3.2 | 3.2 | 0.00 | 0.00 | 0.00 | 82 | 1026.9 |
| 20260504005018 | 13 | 41 | 3.2 | 3.2 | 0.00 | 0.00 | 0.00 | 80 | 1026.6 |
| 20260504004516 | 13 | 77 | 0.0 | 4.8 | 0.00 | 0.00 | 0.00 | 79 | 1026.9 |
| 20260504004013 | 14 | 77 | 3.2 | 4.8 | 0.00 | 0.00 | 0.00 | 77 | 1026.7 |
| 20260504003509 | 15 | 60 | 0.0 | 3.2 | 0.00 | 0.00 | 0.00 | 75 | 1026.7 |
| 20260504003006 | 15 | 75 | 1.6 | 3.2 | 0.00 | 0.00 | 0.00 | 73 | 1026.7 |
| 20260504002503 | 15 | 66 | 3.2 | 3.2 | 0.00 | 0.00 | 0.00 | 70 | 1026.6 |
| 20260504002000 | 16 | 33 | 3.2 | 3.2 | 0.00 | 0.00 | 0.00 | 66 | 1026.6 |
| 20260504001457 | 16 | 60 | 0.0 | 3.2 | 0.00 | 0.00 | 0.00 | 62 | 1026.5 |
| 20260504000954 | 17 | 80 | 3.2 | 3.2 | 0.00 | 0.00 | 0.00 | 61 | 1026.5 |
| 20260504000451 | 17 | 66 | 0.0 | 0.0 | 0.00 | 0.00 | 0.00 | 53 | 1026.6 |
| 20260503235948 | 17 | 66 | 0.0 | 0.0 | 0.00 | 0.00 | 0.00 | 52 | 1026.5 |
| 20260503235446 | 18 | 340 | 0.0 | 3.2 | 0.00 | 0.00 | 0.00 | 51 | 1026.5 |
| 20260503234943 | 18 | 254 | 0.0 | 1.6 | 0.00 | 0.00 | 0.00 | 50 | 1026.8 |
| 20260503234440 | 18 | 150 | 3.2 | 3.2 | 0.00 | 0.00 | 0.00 | 49 | 1026.6 |
| 20260503233939 | 18 | 111 | 0.0 | 3.2 | 0.00 | 0.00 | 0.00 | 50 | 1026.7 |
| 20260503233435 | 18 | 233 | 0.0 | 6.4 | 0.00 | 0.00 | 0.00 | 49 | 1026.6 |
| 20260503232931 | 18 | 75 | 0.0 | 4.8 | 0.00 | 0.00 | 0.00 | 50 | 1026.7 |
| 20260503232428 | 19 | 245 | 3.2 | 8.0 | 0.00 | 0.00 | 0.00 | 49 | 1026.6 |
| 20260503231926 | 19 | 17 | 6.4 | 6.4 | 0.00 | 0.00 | 0.00 | 48 | 1026.6 |
| 20260503231423 | 19 | 75 | 0.0 | 4.8 | 0.00 | 0.00 | 0.00 | 49 | 1026.8 |
| 20260503230919 | 19 | 245 | 0.0 | 4.8 | 0.00 | 0.00 | 0.00 | 48 | 1026.8 |
| 20260503230416 | 19 | 200 | 0.0 | 6.4 | 0.00 | 0.00 | 0.00 | 46 | 1026.8 |
| 20260503225914 | 20 | 187 | 0.0 | 3.2 | 0.00 | 0.00 | 0.00 | 46 | 1026.9 |
| 20260503225410 | 20 | 212 | 0.0 | 4.8 | 0.00 | 0.00 | 0.00 | 43 | 1026.6 |
| 20260503224906 | 20 | 216 | 3.2 | 3.2 | 0.00 | 0.00 | 0.00 | 45 | 1026.9 |
| 20260503224403 | 20 | 130 | 6.4 | 8.0 | 0.00 | 0.00 | 0.00 | 42 | 1026.9 |
| 20260503223901 | 20 | 48 | 3.2 | 4.8 | 0.00 | 0.00 | 0.00 | 43 | 1026.7 |
| 20260503223359 | 20 | 104 | 0.0 | 6.4 | 0.00 | 0.00 | 0.00 | 43 | 1027.1 |
| 20260503222854 | 20 | 114 | 4.8 | 4.8 | 0.00 | 0.00 | 0.00 | 42 | 1026.9 |
| 20260503222353 | 20 | 135 | 0.0 | 6.4 | 0.00 | 0.00 | 0.00 | 41 | 1027.0 |
| 20260503221850 | 20 | 105 | 0.0 | 6.4 | 0.00 | 0.00 | 0.00 | 41 | 1026.9 |
| 20260503221349 | 20 | 133 | 4.8 | 8.0 | 0.00 | 0.00 | 0.00 | 41 | 1026.8 |
| 20260503220844 | 20 | 248 | 8.0 | 8.0 | 0.00 | 0.00 | 0.00 | 40 | 1026.8 |
| 20260503220341 | 21 | 86 | 0.0 | 8.0 | 0.00 | 0.00 | 0.00 | 40 | 1026.8 |
| 20260503215838 | 21 | 255 | 4.8 | 12.9 | 0.00 | 0.00 | 0.00 | 41 | 1026.7 |
| 20260503215336 | 21 | 254 | 4.8 | 9.7 | 0.00 | 0.00 | 0.00 | 43 | 1026.9 |
| 20260503214833 | 22 | 289 | 4.8 | 8.0 | 0.00 | 0.00 | 0.00 | 41 | 1027.0 |
| 20260503214330 | 21 | 189 | 3.2 | 9.7 | 0.00 | 0.00 | 0.00 | 44 | 1027.0 |
| 20260503213828 | 22 | 232 | 3.2 | 4.8 | 0.00 | 0.00 | 0.00 | 42 | 1026.9 |
| 20260503213325 | 22 | 79 | 3.2 | 6.4 | 0.00 | 0.00 | 0.00 | 40 | 1027.0 |
| 20260503212822 | 21 | 327 | 3.2 | 4.8 | 0.00 | 0.00 | 0.00 | 41 | 1026.9 |
| 20260503212320 | 21 | 240 | 8.0 | 8.0 | 0.00 | 0.00 | 0.00 | 41 | 1026.9 |
| 20260503211817 | 22 | 7 | 8.0 | 8.0 | 0.00 | 0.00 | 0.00 | 41 | 1027.0 |
| 20260503211314 | 22 | 176 | 3.2 | 6.4 | 0.00 | 0.00 | 0.00 | 41 | 1026.9 |
| 20260503210813 | 22 | 177 | 4.8 | 4.8 | 0.00 | 0.00 | 0.00 | 41 | 1027.0 |
| 20260503210311 | 21 | 319 | 0.0 | 8.0 | 0.00 | 0.00 | 0.00 | 42 | 1027.1 |
| 20260503205806 | 21 | 250 | 4.8 | 6.4 | 0.00 | 0.00 | 0.00 | 38 | 1027.1 |
| 20260503205304 | 21 | 19 | 3.2 | 9.7 | 0.00 | 0.00 | 0.00 | 42 | 1027.1 |
| 20260503204759 | 21 | 19 | 9.7 | 11.3 | 0.00 | 0.00 | 0.00 | 43 | 1027.1 |
| 20260503204257 | 21 | 30 | 4.8 | 8.0 | 0.00 | 0.00 | 0.00 | 43 | 1027.2 |
| 20260503203754 | 21 | 319 | 0.0 | 12.9 | 0.00 | 0.00 | 0.00 | 44 | 1027.3 |
| 20260503203252 | 21 | 337 | 4.8 | 11.3 | 0.00 | 0.00 | 0.00 | 43 | 1027.3 |
| 20260503202748 | 21 | 262 | 9.7 | 16.1 | 0.00 | 0.00 | 0.00 | 43 | 1027.5 |
| 20260503202247 | 21 | 262 | 3.2 | 8.0 | 0.00 | 0.00 | 0.00 | 43 | 1027.4 |
| 20260503201744 | 21 | 229 | 4.8 | 11.3 | 0.00 | 0.00 | 0.00 | 42 | 1027.5 |
| 20260503201241 | 22 | 209 | 0.0 | 6.4 | 0.00 | 0.00 | 0.00 | 42 | 1027.5 |
| 20260503200738 | 21 | 151 | 3.2 | 6.4 | 0.00 | 0.00 | 0.00 | 42 | 1027.7 |
| 20260503200234 | 21 | 11 | 8.0 | 8.0 | 0.00 | 0.00 | 0.00 | 41 | 1027.9 |
| 20260503195731 | 20 | 286 | 0.0 | 11.3 | 0.00 | 0.00 | 0.00 | 43 | 1028.0 |
| 20260503195228 | 21 | 195 | 6.4 | 8.0 | 0.00 | 0.00 | 0.00 | 44 | 1028.0 |
| 20260503194726 | 21 | 8 | 0.0 | 8.0 | 0.00 | 0.00 | 0.00 | 44 | 1028.3 |
| 20260503194221 | 21 | 186 | 1.6 | 8.0 | 0.00 | 0.00 | 0.00 | 43 | 1028.4 |
| 20260503193718 | 21 | 77 | 1.6 | 16.1 | 0.00 | 0.00 | 0.00 | 44 | 1028.4 |
| 20260503193214 | 21 | 12 | 3.2 | 8.0 | 0.00 | 0.00 | 0.00 | 45 | 1028.5 |
| 20260503192709 | 20 | 257 | 1.6 | 12.9 | 0.00 | 0.00 | 0.00 | 43 | 1028.7 |
| 20260503192205 | 21 | 253 | 9.7 | 11.3 | 0.00 | 0.00 | 0.00 | 43 | 1028.8 |
| 20260503191702 | 21 | 282 | 3.2 | 4.8 | 0.00 | 0.00 | 0.00 | 43 | 1028.8 |
| 20260503191159 | 20 | 263 | 0.0 | 12.9 | 0.00 | 0.00 | 0.00 | 45 | 1028.8 |
| 20260503190655 | 20 | 54 | 4.8 | 6.4 | 0.00 | 0.00 | 0.00 | 45 | 1029.0 |
| 20260503190152 | 21 | 170 | 3.2 | 6.4 | 0.00 | 0.00 | 0.00 | 45 | 1029.1 |
| 20260503185649 | 20 | 36 | 4.8 | 12.9 | 0.00 | 0.00 | 0.00 | 46 | 1029.3 |
| 20260503185144 | 19 | 129 | 8.0 | 9.7 | 0.00 | 0.00 | 0.00 | 46 | 1029.4 |
| 20260503184639 | 19 | 133 | 4.8 | 8.0 | 0.00 | 0.00 | 0.00 | 48 | 1029.5 |
| 20260503184136 | 18 | 180 | 1.6 | 8.0 | 0.00 | 0.00 | 0.00 | 47 | 1029.3 |
| 20260503183633 | 18 | 123 | 3.2 | 11.3 | 0.00 | 0.00 | 0.00 | 47 | 1029.3 |
| 20260503183130 | 19 | 20 | 1.6 | 14.5 | 0.00 | 0.00 | 0.00 | 48 | 1029.5 |
| 20260503182628 | 20 | 339 | 3.2 | 6.4 | 0.00 | 0.00 | 0.00 | 47 | 1029.6 |
| 20260503182126 | 19 | 117 | 6.4 | 8.0 | 0.00 | 0.00 | 0.00 | 51 | 1029.9 |
| 20260503181623 | 20 | 15 | 3.2 | 6.4 | 0.00 | 0.00 | 0.00 | 48 | 1029.6 |
| 20260503181120 | 20 | 23 | 4.8 | 8.0 | 0.00 | 0.00 | 0.00 | 50 | 1029.8 |
| 20260503180617 | 18 | 150 | 3.2 | 6.4 | 0.00 | 0.00 | 0.00 | 48 | 1029.7 |
| 20260503180115 | 18 | 170 | 4.8 | 11.3 | 0.00 | 0.00 | 0.00 | 49 | 1030.0 |
| 20260503175611 | 18 | 184 | 3.2 | 8.0 | 0.00 | 0.00 | 0.00 | 50 | 1029.8 |
| 20260503175108 | 18 | 192 | 3.2 | 4.8 | 0.00 | 0.00 | 0.00 | 50 | 1029.9 |
| 20260503174605 | 18 | 171 | 4.8 | 11.3 | 0.00 | 0.00 | 0.00 | 48 | 1029.8 |
| 20260503174102 | 18 | 236 | 4.8 | 6.4 | 0.00 | 0.00 | 0.00 | 48 | 1030.0 |
| 20260503173557 | 18 | 187 | 8.0 | 8.0 | 0.00 | 0.00 | 0.00 | 51 | 1030.0 |
| 20260503173054 | 20 | 57 | 4.8 | 6.4 | 0.00 | 0.00 | 0.00 | 48 | 1030.0 |
| 20260503172551 | 20 | 3 | 3.2 | 9.7 | 0.00 | 0.00 | 0.00 | 47 | 1030.1 |
| 20260503172048 | 18 | 97 | 12.9 | 12.9 | 0.00 | 0.00 | 0.00 | 47 | 1030.1 |
| 20260503171544 | 18 | 120 | 1.6 | 6.4 | 0.00 | 0.00 | 0.00 | 47 | 1030.4 |
| 20260503171042 | 18 | 41 | 0.0 | 9.7 | 0.00 | 0.00 | 0.00 | 47 | 1030.3 |
| 20260503170538 | 18 | 175 | 4.8 | 6.4 | 0.00 | 0.00 | 0.00 | 50 | 1030.3 |
| 20260503150931 | 16 | 0 | 0.0 | 8.0 | 0.00 | 0.00 | 0.00 | 62 | 1031.3 |
| 20260503150427 | 16 | 144 | 12.9 | 14.5 | 0.00 | 0.00 | 0.00 | 60 | 1031.1 |
| 20260503131320 | 12 | 90 | 3.2 | 8.0 | 0.00 | 0.00 | 0.00 | 87 | 1030.7 |
| 20260503130818 | 11 | 48 | 6.4 | 8.0 | 0.00 | 0.00 | 0.00 | 93 | 1030.9 |
| 20260503130315 | 11 | 70 | 4.8 | 6.4 | 0.00 | 0.00 | 0.00 | 98 | 1030.8 |
| 20260503110709 | 6 | 67 | 3.2 | 3.2 | 0.00 | 0.00 | 0.00 | 99 | 1029.5 |
| 20260503110206 | 6 | 52 | 3.2 | 4.8 | 0.00 | 0.00 | 0.00 | 99 | 1029.5 |
| 20260503100132 | 7 | 71 | 3.2 | 3.2 | 0.00 | 0.00 | 0.00 | 99 | 1028.6 |
| 20260503081522 | 7 | 83 | 0.0 | 3.2 | 0.00 | 0.00 | 0.00 | 99 | 1028.0 |
| 20260503081019 | 7 | 84 | 3.2 | 4.8 | 0.00 | 0.00 | 0.00 | 99 | 1027.8 |
| 20260503080515 | 7 | 57 | 1.6 | 3.2 | 0.00 | 0.00 | 0.00 | 99 | 1027.9 |
| 20260503072449 | 7 | 66 | 1.6 | 3.2 | 0.00 | 0.00 | 0.00 | 99 | 1027.3 |
| 20260503071946 | 7 | 90 | 1.6 | 3.2 | 0.00 | 0.00 | 0.00 | 99 | 1027.2 |
| 20260503071443 | 7 | 90 | 3.2 | 4.8 | 0.00 | 0.00 | 0.00 | 99 | 1027.2 |
| 20260503070939 | 7 | 63 | 1.6 | 3.2 | 0.00 | 0.00 | 0.00 | 99 | 1027.1 |
| 20260503070436 | 7 | 57 | 3.2 | 3.2 | 0.00 | 0.00 | 0.00 | 99 | 1027.1 |
| 20260503054849 | 8 | 85 | 3.2 | 3.2 | 0.00 | 0.00 | 0.00 | 99 | 1027.0 |
| 20260503054345 | 8 | 86 | 3.2 | 4.8 | 0.00 | 0.00 | 0.00 | 99 | 1027.1 |
| 20260503053844 | 8 | 75 | 0.0 | 4.8 | 0.00 | 0.00 | 0.00 | 99 | 1027.1 |
| 20260503053341 | 8 | 73 | 3.2 | 4.8 | 0.00 | 0.00 | 0.00 | 99 | 1027.3 |
| 20260503052837 | 9 | 77 | 1.6 | 3.2 | 0.00 | 0.00 | 0.00 | 99 | 1027.1 |
| 20260503052334 | 8 | 36 | 3.2 | 3.2 | 0.00 | 0.00 | 0.00 | 99 | 1026.9 |